www.pogodaiklimat.ru
Время
(UTC), дата
18 7.12
21 7.12
00 8.12
03 8.12
06 8.12
09 8.12
12 8.12
15 8.12
18 8.12
21 8.12
00 9.12
03 9.12
06 9.12
09 9.12
12 9.12
15 9.12
18 9.12
21 9.12
00 10.12
03 10.12
06 10.12
09 10.12
12 10.12
15 10.12
18 10.12
21 10.12
00 11.12
03 11.12
06 11.12
09 11.12
12 11.12
15 11.12
18 11.12
21 11.12
00 12.12
03 12.12
06 12.12
09 12.12
12 12.12
15 12.12
18 12.12
21 12.12
00 13.12
03 13.12
06 13.12
09 13.12
12 13.12
15 13.12
18 13.12
21 13.12
00 14.12
03 14.12
06 14.12
09 14.12
12 14.12
Ветер
(напр.,м/с)
Видим. Явления Облачность Т
(С)
Тd
(С)
f
(%)
Тe
(С)
Тes
(С)
Комфортность P
(гПа)
Po
(гПа)
Тmin
(С)
Tmax
(С)
R
(мм)
R24
(мм)
S
(см)
З 1 10 км {ливн. осадки} н/о -5.5 -6.0 96 -8 -8 по сезону 983.3 977.0 -5.4 0.8
Ю 3-5
{5}
10 км в посл. час ливневой снег 9/8 600 м
[Cb cap Ac trans]
-3.5 -4.5 93 -9 -9 по сезону 982.3 976.1
ЮЗ 4-5
{6}
10 км {ливн. осадки} 8/6 600 м
[Cb cap Ac trans]
-3.3 -4.4 92 -10 -10 по сезону 980.7 974.5
Ю 2-2
{5}
10 км слаб. ливневой снег 9/8 600 м
[Cb cap Ac trans]
-3.4 -4.1 95 -8 -8 по сезону 979.7 973.5 -7.2 0.4
ЮЗ 1 10 км в посл. час ливневой снег 9/6 600 м
[Cb cap Ac trans]
-3.5 -4.2 95 -6 -6 по сезону 978.8 972.6 -5.5 0.2 39
ЮЗ 2 20 км 10/8 300 м
[Cb cap Ac und]
-5.0 -5.5 96 -9 -9 по сезону 977.9 971.6
Ю 2 10 км 10/9 300 м
[Cb cap Ac und]
-5.3 -5.8 96 -10 -10 по сезону 976.7 970.4
ЮЗ 1 10 км 10/9 600 м
[Cb cap Ac und]
-4.7 -5.4 95 -7 -7 по сезону 976.3 970.1 0.0
Ю 2 10 км 9/8 600 м
[Sc Ac trans]
-4.3 -5.7 90 -9 -9 по сезону 976.5 970.3 -3.5
ЮЗ 4-6
{6}
10 км 6/0
[Ac trans]
-6.8 -7.7 93 -14 -14 прохладно 977.1 970.8
Ю 3-5
{6}
19 км н/о -7.2 -7.9 95 -13 -13 прохладно 977.8 971.5
Ю 3-4
{8}
4900 м {ливн. осадки} н/о -5.4 -6.2 94 -11 -11 по сезону 977.9 971.6 -7.9 0.3
Ю 3-5
{6}
4000 м слаб. ливневой снег 10/10 300 м
[Cb cap]
-5.1 -5.8 95 -11 -11 по сезону 978.2 971.9 -7.9 0.8 38
ЮЗ 2-2
{5}
20 км в посл. час ливневой снег 9/6 600 м
[Cb cap Ac trans]
-5.4 -6.1 95 -10 -10 по сезону 978.6 972.3
СВ 1 2000 м ливневой снег 10/10 300 м
[Cb cap]
-5.0 -5.5 96 -8 -8 по сезону 978.3 972.0
СВ 2 4000 м слаб. ливневой снег 9/8 600 м
[Cb cap Ac trans]
-3.9 -4.4 96 -8 -8 по сезону 978.1 971.9 2
С 6-8
{12}
10 км слаб. ливневой снег 9/6 600 м
[Cb cap Ac trans]
-0.5 -4.1 77 -7 -7 по сезону 978.9 972.7 -0.4 2
С 7-11
{12}
10 км {ливн. осадки} 9/6 600 м
[Cb cap Ac trans]
-0.8 -5.3 72 -8 -8 по сезону 980.9 974.7
СЗ 7-11
{14}
10 км {ливн. осадки} 8/3 1000 м
[Sc Ac trans]
-2.8 -8.7 64 -10 -10 по сезону 983.8 977.6
Ю 1-3
{10}
10 км 6/3 1000 м
[Sc Ac trans]
-5.3 -9.4 73 -7 -7 по сезону 986.9 980.6 -5.4 0.0
Ю 5-7
{7}
10 км 6/3 600 м
[Sc Ac trans]
-9.1 -11.5 83 -17 -17 прохладно 989.4 983.0 -9.5 0.0 36
Ю 6-9
{10}
20 км 9/8 300 м
[Cb cap Ac trans]
-7.9 -10.1 84 -16 -16 прохладно 990.5 984.1
З 8-14
{14}
2000 м ливневой снег {метель} 10/10 600 м
[Cb cap]
-4.5 -5.7 91 -13 -13 по сезону 990.6 984.3
СЗ 8-13
{19}
500 м сильная метель {ливн. осадки} ?/? -4.2 -4.7 96 -13 -13 по сезону 994.7 988.4 6
СЗ 10-16
{17}
10 км метель {ливн. осадки} 8/4 600 м
[Cb cap Ac trans]
-5.4 -10.0 70 -15 -15 по сезону 998.7 992.3 -2.6 8
З 8-14
{17}
10 км сильный позёмок {ливн. осадки} 5/3 600 м
[Cb cap Ac trans]
-7.0 -11.5 70 -16 -16 прохладно 1002.0 995.5
ЮЗ 4-8
{13}
10 км позёмок {ливн. осадки} 5/0
[Ac trans]
-8.0 -11.9 73 -15 -15 по сезону 1004.3 997.8
Ю 5-8
{10}
10 км {метель} 4/0
[Ac trans]
-11.8 -14.2 82 -20 -20 холодно 1006.3 999.7 -11.8 1
Ю 4-6
{9}
10 км {метель} 3/0
[Ci fib]
-11.8 -14.2 82 -19 -19 прохладно 1007.3 1000.7 -12.4 0.0 37
Ю 5-6
{7}
10 км 9/0
[Ci fib]
-14.6 -16.0 89 -23 -23 очень
холодно
1007.1 1000.4
Ю 5-7
{8}
10 км 9/0
[Ac trans]
-11.7 -13.9 84 -20 -20 холодно 1005.0 998.4
Ю 5-8
{9}
4000 м слаб. снег {метель} 10/0
[As op]
-8.0 -9.7 88 -16 -16 по сезону 1001.2 994.7 0.0
Ю 5-8
{11}
4000 м снег {метель} 10/0
[As op]
-5.7 -6.6 93 -13 -13 по сезону 996.7 990.3 -5.7 0.8
Ю 7-10
{11}
4000 м снег {метель} 10/0
[As op]
-4.9 -5.7 94 -13 -13 по сезону 993.1 986.7
Ю 5-9
{11}
20 км н/о -3.9 -5.0 92 -11 -11 по сезону 992.0 985.7
Ю 6-9
{10}
10 км {ливн. осадки, снег} 5/3 300 м
[Cb cap Ac trans]
-1.1 -2.8 88 -8 -8 по сезону 994.4 988.1 -8.0 4
Ю 6-9
{12}
10 км {ливн. осадки} 3/3 300 м
[Cb cap]
-0.5 -2.6 86 -7 -7 тепло 996.0 989.7 -5.7 3 39
Ю 7-10
{10}
20 км 9/9 600 м
[Cb cap]
+0.3 -2.2 83 -7 -7 тепло 997.4 991.1
Ю 5-7
{10}
10 км 9/3 600 м
[Sc Ac lent Ci fib]
+0.4 -1.8 85 -6 -6 тепло 997.4 991.1
ЮЗ 4-6
{9}
10 км 8/3 600 м
[Sc Ac lent Ci fib]
0.0 -2.1 86 -5 -5 тепло 997.9 991.6 0.0
Ю 5-7
{9}
10 км 9/9 1000 м
[Sc]
+0.7 -1.6 85 -5 -5 тепло 997.6 991.4 +0.9
Ю 4-7
{8}
10 км 9/3 1000 м
[Sc Ac trans]
+0.8 -1.4 85 -4 -4 тепло 997.5 991.3
Ю 4-8
{9}
10 км слаб. снег 10/0
[Ac As]
+0.5 -0.8 91 -5 -5 тепло 997.1 990.9
Ю 4-6
{9}
20 км {снег} н/о +0.6 -1.2 88 -5 -5 тепло 996.5 990.3 0.0 0.0
Ю 6-8
{9}
10 км слаб. снег 10/0 1500 м
[Ac As]
+0.2 -0.8 93 -7 -7 тепло 996.0 989.8 +0.1 0.0 38
Ю 4-6
{9}
20 км {снег} 9/6 600 м
[Sc Ac trans]
+0.5 -1.8 85 -5 -5 тепло 996.3 990.1
Ю 6-9
{11}
10 км слаб. ливневой снег 10/8 600 м
[Cb cap Ac und]
-0.7 -1.4 95 -8 -8 по сезону 996.9 990.6
Ю 5-7
{12}
10 км {ливн. осадки, метель} 6/3 600 м
[Cb cap Ac trans]
-1.1 -2.8 88 -8 -8 по сезону 997.6 991.3 0.3
Ю 6-9
{11}
20 км н/о -1.0 -2.9 87 -8 -8 по сезону 998.5 992.2 +0.6 0.4
Ю 6-9
{9}
10 км 9/3 600 м
[Cb cap Ac trans]
0.0 -2.1 86 -7 -7 тепло 999.6 993.3
Ю 5-7
{10}
10 км {метель} 8/3 600 м
[Sc Ac trans]
+0.8 -1.8 83 -5 -5 тепло 1000.9 994.6
Ю 4-6
{8}
10 км 9/8 600 м
[Sc Ac trans]
+0.7 -1.7 84 -5 -5 тепло 1002.1 995.8 -1.1
Ю 4-6
{8}
10 км 8/4 1000 м
[Sc Ac trans]
+0.9 -1.3 85 -4 -4 тепло 1003.1 996.8 -0.9 37
Ю 5-7
{8}
20 км 9/8 1000 м
[Sc Ac trans]
+0.8 -1.7 83 -5 -5 тепло 1004.7 998.4
Ю 4-6
{8}
10 км 6/3 1000 м
[Sc Ac trans]
+0.7 -1.9 83 -5 -5 тепло 1005.4 999.1
Местоположение метеостанции Мурманск (Мурманская область, Россия): широта 68.97 долгота 33.05 высота над уровнем моря 51 м.
В архиве по умолчанию представлена погода в Мурманске за последнюю неделю. Архивные данные за месяц целиком и за предыдущие месяцы, начиная с января 2011 года, Вы можете получить, выбрав интересующий диапазон дат из раскрывающегося списка и нажав кнопку "Найти!".
*Определитесь, кто Вы:
Внимание! Время в таблицах - всемирное. Для получения местного времени необходимо прибавить поправку, которая равна 3 ч.
Смотрите также архив погоды в соседних городах и на ближайших метеорологических станциях:
Партнеры нашего сайта:      
Пояснения к столбцам:
  • Ветер - указаны скорость ветра в м/с - средняя за 10 мин, порывы в срок и между сроками (в фигурных скобках) и направление, откуда дует ветер: С - северный,
  • СВ - северо-восточный, В - восточный, ЮВ - юго-восточный, Ю - южный, ЮЗ - юго-западный, З - западный, СЗ - северо-западный.
  • Видимость - горизонтальная дальность видимости в метрах или километрах. При видимости от 1 до 10 км при отсутствии осадков обычно наблюдается дымка, при ухудшении видимости до 1 км и менее - туман. В сухую погоду видимость может ухудшаться дымом, пылью или мглою.
  • Явления - указаны атмосферные явления, наблюдавшиеся в срок или в последний час перед сроком; фигурными скобками обозначены явления, наблюдавшиеся между сроками (за 1-3 часа до срока); квадратными скобками обозначены град или гололедные отложения с указанием их диаметра в мм.
  • Облачность - указаны через наклонную черту общая и нижняя облачность в баллах и высота нижней границы облаков в метрах; квадратными скобками обозначены формы облаков: Ci - перистые, Cs - перисто-слоистые, Cc - перисто-кучевые, Ac - высококучевые, As - высокослоистые, Sc - слоисто-кучевые, Ns - слоисто-дождевые, Cu - кучевые, Cb - кучево-дождевые. Подробнее классификацию облаков см. в Атласе облаков (PDF).
  • T - Температура воздуха - температура, измеренная на высоте 2 м над землей.
  • Td - Температура точки росы - температура, при понижении до которой содержащийся в воздухе водяной пар достигнет насыщения.
  • f - Относительная влажность воздуха - влажноcть воздуха, измеренная на высоте 2 м над землей.
  • Te - Эффективная температура - температура, которую ощущает одетый по сезону человек в тени. Характеристика душности погоды. При расчете учитывается влияние влажности воздуха и скорости ветра на теплоощущения человека.
  • Tes - Эффективная температура на солнце - температура, которую ощущает человек, с поправкой на солнечный нагрев. Характеристика знойности погоды. Зависит от высоты солнца над горизонтом, облачности и скорости ветра. Ночью, в пасмурную погоду, а также при ветре 12 м/с и более поправка равна нулю.
  • P - Атмосферное давление - приведенное к уровню моря атмосферное давление.
  • Po - Атмосферное давление - измеренное на уровне метеостанции атмосферное давление.
  • Tmin - Минимальная температура - минимум температуры воздуха на высоте 2 м над землей.
  • Tmax - Максимальная температура - максимум температуры воздуха на высоте 2 м над землей.
  • R - Количество осадков - Количество выпавших осадков за период времени, мм. При наведении курсора мыши на число - период времени, за который выпало указанное количество осадков.
  • R24 - Количество осадков - Количество выпавших осадков за 24 часа, мм.
  • S - Снежный покров - Высота снежного покрова, см. При наведении курсора мыши на число - состояние снежного покрова и степень покрытия местности в баллах.